Home   Weather   Iserlohn   Past weeks

Flag for Germany Past Weather in Iserlohn, North Rhine-Westphalia, Germany — Yesterday and Last 2 Weeks

Now
61 °F

Sunny.


Feels Like: 61 °F
Forecast: 42 / 49 °F
Wind: 14 mph from Southeast

Location: Dortmund / Wickede

Current Time: Apr 30, 2017 at 8:55:21 pm

Latest Report: Apr 30, 2017 at 8:20 pm


Visibility: 10 mi

Pressure: 29.74 "Hg

Humidity: 29%

Dew Point: 28 °F

Location of IserlohnLocation

Past Weather in Iserlohn — Graph

°F

Iserlohn Temperature Yesterday

Maximum temperature yesterday: 52 °F (at 4:20 pm)
Minimum temperature yesterday: 36 °F (at 5:20 am)
Average temperature yesterday: 46 °F

High & Low Weather Summary for the Past Weeks

 TemperatureHumidityPressure
High63 °F (Apr 30, 3:50 pm)93% (Apr 18, 5:20 am)30.60 "Hg (Apr 18, 5:20 am)
Low25 °F (Apr 20, 5:20 am)27% (Apr 30, 3:50 pm)29.68 "Hg (Apr 25, 5:20 am)
Average44 °F62%30.11 "Hg
* Reported Apr 15 7:20 pm — Apr 30 7:20 pm, Iserlohn, Weather by CustomWeather, © 2017

Note: Actual official high and low records may vary slightly from our data, if they occured in-between our weather recording intervals... More about our weather records

Advertising

Iserlohn Weather History for the Previous 24 Hours

Scroll right to see more
 ConditionsComfort  
Time TempWeatherWind HumidityBarometerVisibility
7:20 pm
Sun, Apr 30
61 °FPassing clouds.15 mph29%29.74 "HgN/A
6:50 pm63 °FPassing clouds.14 mph27%29.74 "HgN/A
6:20 pm63 °FSunny.15 mph27%29.74 "Hg10 mi
5:50 pm63 °FSunny.15 mph27%29.74 "Hg10 mi
5:20 pm63 °FSunny.15 mph27%29.77 "Hg10 mi
4:50 pm63 °FPassing clouds.15 mph30%29.77 "HgN/A
4:20 pm63 °FPassing clouds.15 mph30%29.80 "HgN/A
3:50 pm63 °FSunny.18 mph27%29.80 "Hg10 mi
3:20 pm61 °FSunny.16 mph31%29.83 "Hg10 mi
2:50 pm61 °FPassing clouds.17 mph31%29.83 "HgN/A
2:20 pm61 °FSunny.18 mph31%29.86 "Hg10 mi
1:50 pm59 °FPassing clouds.16 mph31%29.86 "HgN/A
1:20 pm59 °FPassing clouds.15 mph31%29.86 "HgN/A
12:50 pm61 °FPassing clouds.16 mph31%29.89 "HgN/A
12:20 pm57 °FPassing clouds.16 mph31%29.89 "HgN/A
11:50 am57 °FPassing clouds.15 mph33%29.92 "HgN/A
11:20 am57 °FPassing clouds.14 mph33%29.92 "HgN/A
10:50 am55 °FPassing clouds.13 mph41%29.92 "HgN/A
10:20 am54 °FPassing clouds.13 mph44%29.95 "HgN/A
9:50 am52 °FPassing clouds.10 mph44%29.95 "HgN/A
9:20 am50 °FPassing clouds.8 mph47%29.95 "HgN/A
8:50 am48 °FPassing clouds.6 mph50%29.95 "HgN/A
8:20 am43 °FSunny.3 mph66%29.98 "Hg10 mi
7:50 am39 °FSunny.3 mph70%29.98 "Hg10 mi
7:20 am36 °FSunny.No wind75%29.98 "Hg10 mi
6:50 am34 °FSunny.6 mph75%29.98 "Hg10 mi
6:20 am32 °FSunny.6 mph80%29.98 "Hg10 mi
5:50 am32 °FPassing clouds.5 mph80%29.98 "HgN/A
5:20 am32 °FClear.6 mph80%29.98 "Hg10 mi
9:50 pm
Sat, Apr 29
45 °FClear.8 mph53%30.04 "Hg10 mi
9:20 pm45 °FClear.8 mph53%30.04 "Hg10 mi
8:50 pm45 °FClear.6 mph53%30.04 "Hg10 mi
8:20 pm48 °FSunny.8 mph43%30.04 "Hg10 mi
Weather by CustomWeather, © 2017

See weather overviewHow to use our weather pages